User: anonymous   Login
Location: Norwich
(52.6280°N, 1.3030°E)
Time: 19:44:09
(UTC+01:00)
Language:

Meteor 1-22 Rocket - Orbit

View from above orbital plane
View from above orbital plane
View from above satellite
View from above satellite

Ground track
Ground track

The orbit data is extracted from the following two-line orbital elements,

1 08294U 75087B   18141.19007673  .00000046  00000-0  17976-4 0  9992
2 08294  81.2186  53.1530 0107419 168.1750 192.1982 14.08617026192434
Epoch (UTC): 21 May 2018 04:33:42
Eccentricity: 0.0107419
inclination: 81.2186°
perigee height: 786 km
apogee height: 942 km
right ascension of ascending node: 53.1530°
argument of perigee: 168.1750°
revolutions per day: 14.08617026
mean anomaly at epoch: 192.1982°
orbit number at epoch: 19243

The dashed part of the orbit path shows where the satellite is in the earth's shadow,  

DLR